{"data":{"norad_id":59314,"epoch":"2026-09-21T05:04:34.953024Z","epoch_age_seconds":100776,"freshness":"FRESH","line1":"1 59314U 24056U   26264.21151566  .00000097  00000+0  13030-4 0  9992","line2":"2 59314  43.0027 198.9961 0000972 276.3115  83.7626 15.27581754141144","mean_motion":15.27581754,"eccentricity":9.72e-5,"inclination_deg":43.0027,"raan_deg":198.9961,"arg_perigee_deg":276.3115,"mean_anomaly_deg":83.7626,"bstar":1.303e-5,"rev_number":14114,"period_min":94.266640474681,"perigee_km":482.37693715965,"apogee_km":483.71075071571,"semimajor_km":6861.1808439377,"source":"CELESTRAK","updated_at":"2026-09-22T09:00:48.896675Z"}}